Regional Weather Roundup
Issued by NWS

Home | Current Version | Previous Version | Graphics & Text | Print | Product List | Glossary On
Versions: 1 2 3 4 5 6 7 8 9 10 11 12 13 14 15 16 17 18 19 20 21 22 23 24 25 26 27 28 29 30 31 32 33 34 35 36 37 38 39 40 41 42 43 44 45 46 47 48 49 50
313
ASUS45 KBOU 240607
RWRCO

WEATHER ROUNDUP FOR COLORADO
NATIONAL WEATHER SERVICE DENVER/BOULDER CO
1100 PM MST MON JAN 23 2017

NOTE: "FAIR" INDICATES FEW OR NO CLOUDS BELOW 12000 FEET WITH NO
SIGNIFICANT WEATHER AND/OR OBSTRUCTIONS TO VISIBILITY.

COZ001>005-013-030-031-240700-
...NORTHWEST COLORADO...

CITY           SKY/WX    TMP DP  RH WIND       PRES   REMARKS
CRAIG          CLOUDY    29  20  69 W5        29.53S WCI  24
HAYDEN         MOCLDY    25  18  74 CALM      29.53S
MEEKER         MOCLDY    29  19  66 SW3       29.53F
MOUNT WERNER   NOT AVBL
STEAMBOAT SPGS MOCLDY    25  17  71 E5        29.52F WCI  20
WALDEN           N/A     19  14  79 S9        29.54S WCI   9
$$

COZ006>008-011-240700-
...WEST CENTRAL VALLEYS...

CITY           SKY/WX    TMP DP  RH WIND       PRES   REMARKS
GRAND JUNCTION FAIR      30  30 100 E5        29.57R WCI  25
MONTROSE       MOCLDY    33  23  66 SE9       29.60F WCI  25
EAGLE          CLEAR     25  21  86 E5        29.57F WCI  19
RIFLE          FAIR      29  27  92 S3        29.57S
DELTA          FAIR      34  28  77 NE8       29.60F WCI  28
NUCLA          MOCLDY    32  23  69 CALM      29.65R
$$

COZ017>023-064>068-240700-
...SOUTHWEST COLORADO...

CITY           SKY/WX    TMP DP  RH WIND       PRES   REMARKS
DURANGO        MOCLDY    26  21  81 SW7       29.62R WCI  18
CORTEZ         FLURRIES  27  26  96 NE5       29.64F WCI  22
PAGOSA SPRINGS LGT SNOW  28  28  98 SW5       29.62S WCI  23
TELLURIDE      NOT AVBL
WOLF CREEK PAS CLOUDY    12  12 100 SW15G30   29.58R WCI  -4
$$

COZ009-010-012-014-032>034-037-058>063-240700-
...CENTRAL COLORADO...

CITY           SKY/WX    TMP DP  RH WIND       PRES   REMARKS
ASPEN          MOCLDY    21  19  92 S8        29.54F WCI  11
BUENA VISTA    CLOUDY    26  16  67 W6        29.57S WCI  19
COPPER MTN     CLOUDY    14   9  79 MISG      29.53S
BERTHOUD PASS  CLOUDY     5  -4  66 MISG      29.51R
COTTONWOOD PAS LGT SNOW  23  16  74 W14G20    29.55F WCI  11
GUNNISON       CLOUDY    23  18  81 N6        29.59F WCI  16
KREMMLING      FAIR      27  18  69 CALM      29.56F
LEADVILLE      CLOUDY    17  12  80 NE3       29.54R
MONARCH PASS   CLOUDY    10   9  92 NW6       29.61F WCI   1
SALIDA         CLOUDY    31  19  63 W9        29.63F WCI  22
SUNLIGHT         N/A     12  10  92 SW16G23   29.55S WCI  -4
WILKERSON PASS CLOUDY   N/A N/A N/A SW10G17   29.55F FOG
$$

COZ069>075-240700-
...SAN LUIS VALLEY/SANGRE DE CRISTO MOUNTAINS...

CITY           SKY/WX    TMP DP  RH WIND       PRES   REMARKS
ALAMOSA        CLOUDY    27  26  96 S3        29.56S
LA VETA PASS   SNOW      27  23  86 NE21G38   29.53R VSB 1/2 WCI  13
SAGUACHE       LGT SNOW  25  23  93 NW15      29.57F WCI  12
$$

COZ035-036-038>040-240700-
...NORTHERN COLORADO FRONT RANGE...

CITY           SKY/WX    TMP DP  RH WIND       PRES   REMARKS
DENVER INTL AP CLOUDY    32  25  75 N8        29.52S WCI  25
DMNS CITY PARK   N/A     34  28  77 NE6G14    29.53R WCI  29
AURORA         MOCLDY    31  26  84 NW5       29.54R WCI  26
FRONT RANGE AP MOCLDY    32  30  93 N10       29.52R WCI  24
ERIE MUNI ARPT FAIR      33  31  94 N9        29.53F WCI  25
BOULDER MUN AP FAIR      34  32  93 N3        29.53F
CENTENNIAL     MOCLDY    33  25  72 N13       29.53R WCI  24
BROOMFIELD     FAIR      32  32 100 N13       29.53S WCI  22
FORT COLLINS   MOCLDY    32  31  96 N7        29.55F WCI  26
LONGMONT       FAIR      35  33  92 N10       29.55F WCI  27
$$

COZ041-046-047-076>085-087-088-240700-
...PIKES PEAK/PALMER DIVIDE AND SOUTHERN FOOTHILLS...

CITY           SKY/WX    TMP DP  RH WIND       PRES   REMARKS
COLO. SPRINGS  CLOUDY    38  26  62 NW9       29.51S
A. F. ACADEMY  MOCLDY    37  21  51 CALM      29.49F
SCHRIEVER AFB  FAIR      35  24  63 W7        29.50F WCI  29
ELLICOTT       FAIR     N/A N/A N/A W3        29.49S
FALCON         CLOUDY    35  23  62 W7        29.51R WCI  29
FORT CARSON    MOCLDY    40  26  57 W6        29.48S
LIMON          FAIR      33  26  75 N6        29.48R WCI  28
MONUMENT HILL  CLOUDY    32  23  69 W8        29.53R WCI  25
TRINIDAD       FAIR      40  26  57 SW13      29.50F
$$

COZ042>045-048>051-090-091-240700-
...NORTHEAST COLORADO...

CITY           SKY/WX    TMP DP  RH WIND       PRES   REMARKS
GREELEY ARPT   LGT RAIN  33  32  96 N15       29.55F WCI  23
AKRON          FAIR      30  24  78 E10       29.48F WCI  21
BURLINGTON     FAIR      29  25  85 W7        29.47F WCI  22
WRAY           NOT AVBL
STERLING       MOCLDY    36  28  75 E3        29.51F
HOLYOKE        FAIR      34  30  86 NE9       29.53F WCI  26
FORT MORGAN    FAIR      32  24  74 E6        29.51F WCI  26
$$

COZ086-089-092>099-240700-
...SOUTHEAST COLORADO...

CITY           SKY/WX    TMP DP  RH WIND       PRES   REMARKS
PUEBLO         CLOUDY    43  29  57 W18       29.51R
LA JUNTA       FAIR      34  28  79 SW6       29.47F WCI  29
LAMAR          FAIR      32  26  78 SW6       29.46F WCI  26
SPRINGFIELD      N/A     32  25  75 SW12      29.51F WCI  23
$$




USA.gov is the U.S. government's official web portal to all federal, state and local government web resources and services.